[[{"header":{"parameterUnit":"m.s-1","parameterCategory":1,"la1":30.2991,"la2":30.254,"lo1":-89.0895,"lo2":-89.0444,"dy":0.0017,"dx":0.0017,"nx":28,"ny":28,"refTime":"2023-03-18T21:00:00:Z","depth":0,"parameterNumber":2,"parameterNumberName":"U-component_of_WINDS"},"data":[0,0,0,0,0,0,0,0,0,0,0,0,0,0,0,0,0,0,0,0,0,0,0,0,0,0,0,0,0,0,0,0,0,0,0,0,0,0,0,0,0,0,0,0,0,0,0,0,0,0,0,0,0,0,0,0,0,0,0.4478,0.4477,0,0.4408,0.4407,0.4406,0.4399,0.44,0.44,0.4401,0.4325,0.4322,0.432,0,0,0,0,0,0,0,0,0,0,0,0,0,0.4603,0.4601,0.4478,0.4477,0.4476,0.4408,0.4407,0.4406,0.4399,0.44,0.44,0.4401,0.4326,0.4323,0.432,0,0,0,0,0,0,0,0,0,0,0,0,0,0.4542,0.46,0.4478,0.4464,0.4463,0.4408,0.4407,0.4406,0.4398,0.44,0.4401,0.4402,0.4327,0.4323,0.4319,0.4272,0,0,0.4307,0.4305,0,0,0,0,0,0,0,0,0.4546,0.4538,0.4467,0.4465,0.4463,0.4413,0.4423,0.4361,0.4398,0.4423,0.4401,0.4402,0.4353,0.4347,0.4331,0.4269,0.4265,0.4306,0.4304,0.4302,0.4301,0,0,0,0,0,0,0,0.455,0.454,0.445,0.4466,0.4464,0.4461,0.4453,0.4411,0.4382,0.4421,0.442,0.4412,0.4352,0.4335,0.433,0.4264,0.4306,0.4303,0.43,0.4299,0.416,0.4159,0,0,0,0,0,0,0.4557,0.4544,0.4452,0.4448,0.4508,0.4458,0.4449,0.4428,0.4383,0.4377,0.4411,0.4412,0.4342,0.4334,0.4327,0.4269,0.4302,0.4298,0.4296,0.4161,0.416,0.4158,0,0,0,0,0,0,0.456,0.4549,0.4455,0.4496,0.4484,0.4455,0.443,0.4426,0.4409,0.4376,0.437,0.4399,0.4342,0.4333,0.4286,0.4266,0.4297,0.4293,0.4163,0.4161,0.4159,0.4152,0,0,0,0,0,0,0.4563,0.455,0.4532,0.4496,0.4482,0.4416,0.4429,0.4424,0.4403,0.4403,0.4363,0.4358,0.4342,0.4292,0.4282,0.4261,0.429,0.4164,0.4162,0.4159,0.4154,0.415,0.4147,0,0,0,0,0,0.4568,0.4532,0.4531,0.452,0.4459,0.4415,0.4407,0.4391,0.4401,0.4383,0.4362,0.4359,0.4271,0.4288,0.4276,0.4253,0.4165,0.4162,0.416,0.4155,0.4151,0.4147,0,0,0,0,0,0,0.4565,0.4527,0.4526,0.4477,0.445,0.4414,0.439,0.4387,0.4355,0.4356,0.4337,0.4328,0.4282,0.4264,0.4283,0.4206,0.4219,0.4213,0.4219,0.4215,0.4211,0.4216,0.4286,0,0,0,0,0,0.456,0.4528,0.4496,0.4456,0.4443,0.4419,0.4399,0.439,0.436,0.4348,0.4323,0.4293,0.4259,0.4236,0.4202,0.4152,0.4143,0.4131,0.4127,0.4125,0.412,0.4091,0.4085,0.4149,0.4149,0.4149,0,0,0.4546,0.4522,0.4502,0.4455,0.4433,0.44,0.4409,0.4373,0.4348,0.4342,0.4296,0.4278,0.4243,0.4195,0.4172,0.4177,0.4101,0.4121,0.4119,0.4115,0.4088,0.4082,0.4077,0.4147,0.4147,0.4148,0,0,0.4505,0.4484,0.4448,0.4426,0.4393,0.4378,0.437,0.4335,0.4322,0.4277,0.4272,0.4242,0.4183,0.4158,0.4138,0.409,0.4086,0.408,0.4061,0.4033,0.4028,0.4024,0.4006,0.4,0.4075,0.4075,0.4075,0,0.4492,0.4443,0.443,0.4395,0.4374,0.4369,0.4333,0.4312,0.4268,0.4254,0.4261,0.4188,0.4164,0.411,0.4098,0.4083,0.4072,0.4083,0.4031,0.4026,0.4021,0.4004,0.3997,0.4075,0.4075,0.4075,0.4075,0,0.4429,0.4395,0.437,0.4331,0.4307,0.4272,0.4252,0.423,0.4224,0.4208,0.4162,0.4134,0.4095,0.4082,0.4074,0.4026,0.4031,0.4035,0.4047,0.4015,0.3998,0.3991,0.4074,0.4074,0.4074,0.4074,0,0,0.4381,0.4337,0.4327,0.4309,0.4273,0.4246,0.4211,0.4174,0.4155,0.4126,0.4095,0.4047,0.4051,0.4028,0.4018,0.3994,0.3957,0.4001,0.4,0.3993,0.3902,0.3898,0.3891,0.3956,0.3955,0.3954,0.3905,0,0.4335,0.4272,0.426,0.4205,0.4173,0.417,0.4139,0.4113,0.4097,0.4068,0.405,0.4016,0.4024,0.401,0.3987,0.3967,0.3939,0.3971,0.3925,0.3924,0.3932,0.3882,0.3877,0.3832,0.3898,0.3897,0.3896,0,0.4271,0.4242,0.4185,0.4154,0.414,0.4112,0.4078,0.405,0.4021,0.4012,0.3988,0.3981,0.3943,0.3959,0.3907,0.3929,0.391,0.3897,0.3895,0.3888,0.3906,0.3872,0.3817,0.381,0.3886,0.3887,0.3887,0,0.4241,0.4188,0.4146,0.4131,0.4094,0.4075,0.4059,0.4031,0.401,0.398,0.3966,0.3932,0.3912,0.3886,0.387,0.3883,0.3818,0.3833,0.3808,0.3808,0.3792,0.3793,0.3732,0.3784,0.3784,0.3784,0.3784,0,0.4189,0.4153,0.4132,0.4106,0.4067,0.4054,0.4014,0.3998,0.3974,0.3944,0.3939,0.3911,0.3893,0.3863,0.385,0.3808,0.38,0.379,0.3787,0.3789,0.379,0.3775,0.3777,0.3782,0.3782,0.3783,0.3783,0,0.4146,0.4131,0.4086,0.4056,0.4047,0.4019,0.3993,0.3967,0.3953,0.3916,0.3907,0.3884,0.3848,0.383,0.3785,0.3777,0.3729,0.3728,0.3739,0.3737,0.3712,0.3714,0.3637,0.3626,0.3687,0.3687,0.3686,0,0.4113,0.4086,0.4054,0.4034,0.4018,0.3987,0.3966,0.3953,0.3931,0.3897,0.3875,0.384,0.381,0.3753,0.3732,0.3697,0.3695,0.3671,0.3689,0.3693,0.3693,0.3694,0.3691,0.3666,0.3666,0.3665,0.3665,0,0.4055,0.405,0.402,0.3989,0.3964,0.3938,0.3913,0.3897,0.388,0.3856,0.382,0.3797,0.3753,0.3717,0.3682,0.3664,0.3661,0.366,0.3652,0.3653,0.3659,0.3654,0.3728,0.3661,0.3661,0.3661,0.3662,0.3662,0.4015,0.3991,0.3965,0.3932,0.3913,0.3889,0.3864,0.3848,0.3818,0.3781,0.3776,0.3737,0.371,0.3662,0.3644,0.3613,0.3618,0.3607,0.3604,0.3601,0.3599,0.3667,0.3607,0.3607,0.3607,0.3607,0.3607,0,0.3956,0.3939,0.391,0.3875,0.385,0.3853,0.3825,0.3803,0.377,0.3745,0.3717,0.3676,0.3642,0.3619,0.3584,0.3564,0.3562,0.3555,0.3555,0.3551,0.3597,0.3606,0.3558,0.3558,0.3558,0.3558,0.3558,0.3558,0.3922,0.3881,0.3872,0.3821,0.3805,0.3768,0.3752,0.3731,0.3711,0.3666,0.3638,0.3624,0.36,0.3564,0.3533,0.3527,0.3514,0.3507,0.3501,0.3543,0.3548,0.3553,0.3562,0.3504,0.3504,0.3457,0.3457,0.3457]},{"header":{"parameterUnit":"m.s-1","parameterCategory":1,"la1":30.2991,"la2":30.254,"lo1":-89.0895,"lo2":-89.0444,"dy":0.0017,"dx":0.0017,"nx":28,"ny":28,"refTime":"2023-03-18T21:00:00:Z","depth":0,"parameterNumber":3,"parameterNumberName":"V-component_of_WINDS"},"data":[0,0,0,0,0,0,0,0,0,0,0,0,0,0,0,0,0,0,0,0,0,0,0,0,0,0,0,0,0,0,0,0,0,0,0,0,0,0,0,0,0,0,0,0,0,0,0,0,0,0,0,0,0,0,0,0,0,0,-7.9783,-7.9784,0,-7.994,-7.9942,-7.9944,-7.9821,-7.9816,-7.9811,-7.9806,-7.9962,-7.997,-7.9979,0,0,0,0,0,0,0,0,0,0,0,0,0,-7.9371,-7.9379,-7.9782,-7.9784,-7.9786,-7.994,-7.9942,-7.9944,-7.9822,-7.9816,-7.981,-7.9804,-7.9959,-7.9969,-7.998,0,0,0,0,0,0,0,0,0,0,0,0,0,-7.9541,-7.9382,-7.9782,-7.9744,-7.9743,-7.9939,-7.9942,-7.9945,-7.9824,-7.9816,-7.9808,-7.9801,-7.9955,-7.9968,-7.9982,-8.0222,0,0,-8.0023,-8.0029,0,0,0,0,0,0,0,0,-7.9532,-7.9556,-7.9748,-7.9747,-7.9746,-7.9853,-7.9854,-8.0038,-7.9826,-7.9793,-7.9806,-7.9797,-7.9932,-7.9947,-7.9993,-8.023,-8.0236,-8.0024,-8.0032,-8.0038,-8.0042,0,0,0,0,0,0,0,-7.952,-7.9549,-7.9844,-7.9751,-7.975,-7.9718,-7.9733,-7.9888,-7.9904,-7.9795,-7.9787,-7.9807,-7.9929,-7.998,-7.9996,-8.0239,-8.0024,-8.0036,-8.0044,-8.005,-8.0681,-8.0689,0,0,0,0,0,0,-7.9513,-7.954,-7.9839,-7.9849,-7.9617,-7.9732,-7.9749,-7.9826,-7.9902,-7.9906,-7.9814,-7.9801,-7.9961,-7.998,-8.0001,-8.0289,-8.0038,-8.0051,-8.0059,-8.0672,-8.0683,-8.0692,0,0,0,0,0,0,-7.9504,-7.9541,-7.9833,-7.9693,-7.9727,-7.9747,-7.9835,-7.9834,-7.9885,-7.9916,-7.9918,-7.9863,-7.9956,-7.9982,-8.0169,-8.0292,-8.0057,-8.0069,-8.0662,-8.0676,-8.0687,-8.0866,0,0,0,0,0,0,-7.9493,-7.9538,-7.9631,-7.9696,-7.9735,-8.0001,-7.9843,-7.9843,-7.9909,-7.9894,-7.9963,-7.9967,-7.9952,-8.0149,-8.0182,-8.0307,-8.008,-8.0651,-8.0668,-8.0683,-8.0849,-8.0883,-8.0913,0,0,0,0,0,-7.9479,-7.9674,-7.9637,-7.9674,-7.9852,-8.0008,-8.0031,-8.001,-7.992,-8.0013,-8.0033,-7.9965,-8.0273,-8.017,-8.0206,-8.0336,-8.0643,-8.0663,-8.0682,-8.0835,-8.0876,-8.0912,0,0,0,0,0,0,-7.9622,-7.9682,-7.9641,-7.9863,-7.9932,-7.9987,-8.0104,-8.0055,-8.0149,-8.0131,-8.01,-8.0116,-8.0313,-8.0342,-8.0226,-8.0573,-8.0443,-8.0471,-8.0547,-8.0587,-8.0618,-8.0607,-8.0091,0,0,0,0,0,-7.9679,-7.9803,-7.9847,-8.0039,-8.0076,-8.0085,-8.0151,-8.013,-8.0199,-8.0227,-8.026,-8.0329,-8.044,-8.0515,-8.062,-8.0852,-8.0865,-8.0959,-8.0991,-8.1017,-8.1042,-8.1167,-8.1209,-8.0756,-8.0756,-8.0755,0,0,-7.9799,-7.9847,-7.9926,-8.0069,-8.012,-8.0247,-8.011,-8.0249,-8.0343,-8.0247,-8.0427,-8.0454,-8.0528,-8.0739,-8.0833,-8.0769,-8.117,-8.1042,-8.1062,-8.1073,-8.1191,-8.1234,-8.1273,-8.0769,-8.0767,-8.0765,0,0,-8.0083,-8.0132,-8.0297,-8.0351,-8.043,-8.0435,-8.0475,-8.0538,-8.0554,-8.0734,-8.0665,-8.0774,-8.0968,-8.1024,-8.1077,-8.1383,-8.1324,-8.1417,-8.1584,-8.1707,-8.1742,-8.1774,-8.1884,-8.1923,-8.1441,-8.1442,-8.1442,0,-8.0221,-8.0412,-8.0388,-8.0534,-8.0598,-8.0519,-8.0686,-8.0739,-8.0848,-8.0893,-8.082,-8.1063,-8.1106,-8.133,-8.1405,-8.145,-8.1494,-8.141,-8.1739,-8.1771,-8.18,-8.1904,-8.1945,-8.1453,-8.1451,-8.145,-8.1449,0,-8.0579,-8.0712,-8.0836,-8.0946,-8.1024,-8.1179,-8.1177,-8.1259,-8.123,-8.1242,-8.1426,-8.1476,-8.159,-8.1641,-8.1614,-8.1862,-8.182,-8.1744,-8.1613,-8.1855,-8.1952,-8.1992,-8.1468,-8.1464,-8.1461,-8.1458,0,0,-8.0957,-8.1053,-8.1099,-8.1148,-8.1229,-8.1331,-8.1482,-8.1596,-8.1667,-8.1744,-8.187,-8.2036,-8.1967,-8.2028,-8.2006,-8.2114,-8.2354,-8.2024,-8.2026,-8.2085,-8.263,-8.2688,-8.2734,-8.2315,-8.2322,-8.2328,-8.2624,0,-8.1246,-8.1513,-8.1495,-8.1745,-8.1868,-8.1795,-8.1926,-8.199,-8.2005,-8.211,-8.2125,-8.2244,-8.2143,-8.218,-8.2283,-8.2303,-8.2463,-8.2281,-8.2431,-8.2437,-8.2417,-8.2785,-8.2846,-8.3123,-8.2662,-8.2668,-8.2673,0,-8.1618,-8.1712,-8.1975,-8.2039,-8.209,-8.2209,-8.2312,-8.2413,-8.2483,-8.2487,-8.2556,-8.2516,-8.2667,-8.2533,-8.2741,-8.2618,-8.2677,-8.2696,-8.2707,-8.2721,-8.2571,-8.281,-8.3211,-8.3253,-8.2733,-8.2728,-8.2724,0,-8.187,-8.206,-8.2243,-8.2287,-8.2366,-8.2452,-8.2488,-8.2551,-8.262,-8.2709,-8.2754,-8.2859,-8.2917,-8.2998,-8.2987,-8.289,-8.3199,-8.3063,-8.3205,-8.3206,-8.3275,-8.3271,-8.3692,-8.3312,-8.3311,-8.331,-8.3309,0,-8.2195,-8.2359,-8.2357,-8.247,-8.2651,-8.2629,-8.2808,-8.2834,-8.2891,-8.3006,-8.2947,-8.3056,-8.3035,-8.3143,-8.3135,-8.3309,-8.3334,-8.3341,-8.3337,-8.3347,-8.3347,-8.3387,-8.3368,-8.3321,-8.3319,-8.3317,-8.3315,0,-8.2507,-8.2512,-8.2707,-8.2766,-8.2785,-8.2916,-8.2966,-8.3072,-8.3082,-8.3228,-8.3261,-8.3277,-8.3401,-8.3398,-8.3538,-8.3533,-8.3747,-8.372,-8.3725,-8.3719,-8.3862,-8.385,-8.4325,-8.4387,-8.3966,-8.397,-8.3973,0,-8.2715,-8.284,-8.2913,-8.2988,-8.303,-8.315,-8.3221,-8.3203,-8.328,-8.3369,-8.3464,-8.3584,-8.3678,-8.388,-8.3903,-8.401,-8.3986,-8.4145,-8.4001,-8.4008,-8.399,-8.3983,-8.3996,-8.4174,-8.4178,-8.4182,-8.4185,0,-8.3083,-8.308,-8.3186,-8.3295,-8.3382,-8.3466,-8.3542,-8.3606,-8.3596,-8.3684,-8.3812,-8.3886,-8.403,-8.415,-8.4253,-8.4288,-8.4236,-8.423,-8.4269,-8.4282,-8.428,-8.4284,-8.3803,-8.422,-8.4216,-8.4214,-8.4212,-8.421,-8.335,-8.3459,-8.3528,-8.3648,-8.3705,-8.3778,-8.3881,-8.3904,-8.4011,-8.413,-8.4111,-8.4254,-8.432,-8.4454,-8.4499,-8.4609,-8.4552,-8.4608,-8.4623,-8.4637,-8.4654,-8.4261,-8.4627,-8.4626,-8.4625,-8.4625,-8.4624,0,-8.3717,-8.3758,-8.3869,-8.398,-8.4075,-8.4019,-8.41,-8.4183,-8.4311,-8.4378,-8.4473,-8.462,-8.4735,-8.4767,-8.4878,-8.496,-8.4939,-8.499,-8.4984,-8.4993,-8.4698,-8.4654,-8.5005,-8.5005,-8.5005,-8.5005,-8.5005,-8.5005,-8.3919,-8.41,-8.4105,-8.4312,-8.4351,-8.4493,-8.4545,-8.4612,-8.4665,-8.4833,-8.4929,-8.495,-8.5003,-8.5117,-8.522,-8.5227,-8.527,-8.5332,-8.5329,-8.5052,-8.5014,-8.4978,-8.4936,-8.5341,-8.5342,-8.5615,-8.5618,-8.5619]}]]